Погода в Грибовке

Россия / Амурская область     49°28′24″N   130°22′30″E
темп.,
°C
ветер,
м/с
пор.,
м/с
влажн.,
%
обл.,
%
осадки,
мм/ч
давл.,
гПа
погр.,
м
31 июля, сб
сб3100:00+21вюв118374 0.1 100119
03:00+20всв1186100 0.3 100120
06:00+20ю1196100 0.9 100232
09:00+19юв21197100 2.8 1003596
12:00+21юв4128993 0.3 1002650
15:00+27ююв6105546 0.3 10011230
18:00+20юв31194100 1.0 1002550
21:00+19вюв2697100 1.9 1002294
1 августа, вс
вс100:00+19юв31397100 5.5 1002667
03:00+19вюв3109713 8.5 1002528
06:00+19юв3129675 1.8 1003595
09:00+24ююв61267100 1.8 1003875
12:00+24юв6117083 0.0 1004915
15:00+25ююв51270100 0.1 10041026
18:00+23юв5138091 0.5 1004795
21:00+22юв41481100 0.8 1005712
2 августа, пн
пн200:00+20юв3138799 0.7 1005472
03:00+19ю1393100 1.4 100571
06:00+19всв1196100 0.6 100634
09:00+20ю1496100 1.2 1006166
12:00+28ю475659 0.6 10061391
15:00+25з3478100 0.7 1006252
18:00+21с0093100 0.1 100637
21:00+19зюз119860 0.4 100718
3 августа, вт
вт300:00+18зюз1110069 0.7 100745
03:00+19зюз10100100 2.3 100686
06:00+19св11100100 1.4 100683
09:00+24ю2680100 1.5 1005616
12:00+25ю3791100 2.1 1004747
15:00+26ю4878100 3.8 1003620
18:00+21ююв1199100 3.6 100332
21:00+18юз3799100 4.1 1003395
4 августа, ср
ср400:00+16ююз3799100 0.1 1004576
03:00+15зюз3799100 0.7 1004562
06:00+15з3799100 0.7 1005678
09:00+17з369491 0.8 1006642
12:00+23з3557100 0.1 10051148
15:00+24з345699 0.1 10041307
18:00+23зсз226772 0.0 1004768
21:00+19св1182100 0.0 100426